sat.trackr.live / text

‹ back to catalog

2023-085L

NORAD 57014 · 2023-085L

PAYLOAD ACTIVE UNKNOWN

§ Identity

Operator
Country
PRC
Launch date
2023-06-15
Launch site
TAISC
Launch vehicle
Mass (kg)
RCS (m²)

External: N2YO · Heavens-Above · Gunter

§ Orbital elements

Epoch: 2026-05-25T03:26:52.567008Z

Period
94.05 min
Inclination
97.4937°
Eccentricity
0.0006198
Mean motion
15.31076269 rev/d
Perigee alt
468.4 km
Apogee alt
476.8 km
Semi-major
6,850.7 km
B*
4.3135e-4
RAAN
255.6824°
Arg perigee
122.6861°
Mean anomaly
237.4978°
Rev number
16,309

§ Raw data

2023-085L1 57014U 23085L   26145.14366397  .00012886  00000+0  43135-3 0  99952 57014  97.4937 255.6824 0006198 122.6861 237.4978 15.31076269163099

JSON: /api/v1/satellites/57014 · /tle

For live sub-satellite position, see the globe view (requires WebGL).

§ Visibility from observer

Set your observer location to see the next 7 days of passes ≥ 10°. The values pass through the URL so the page stays shareable.

No JS? Fill the form by hand. The geolocation button needs JavaScript.